Regional Weather Roundup
Issued by NWS

Home | Current Version | Previous Version | Graphics & Text | Print | Product List | Glossary On
Versions: 1 2 3 4 5 6 7 8 9 10 11 12 13 14 15 16 17 18 19 20 21 22 23 24 25 26 27 28 29 30 31 32 33 34 35 36 37 38 39 40 41 42 43 44 45 46 47 48 49 50
503
ASUS45 KBOU 171410
RWRCO

WEATHER ROUNDUP FOR COLORADO
NATIONAL WEATHER SERVICE PUEBLO CO
700 AM MST SAT FEB 17 2018

NOTE: "FAIR" INDICATES FEW OR NO CLOUDS BELOW 12000 FEET WITH NO
SIGNIFICANT WEATHER AND/OR OBSTRUCTIONS TO VISIBILITY.

COZ001>005-013-030-031-171500-
...NORTHWEST COLORADO...

CITY           SKY/WX    TMP DP  RH WIND       PRES   REMARKS
CRAIG          MOCLDY     8   2  76 E3        30.18R
HAYDEN         CLOUDY    19   8  62 E6        30.18R WCI  11
MEEKER         CLEAR     16  10  77 NE5       30.17S WCI   9
RABBIT EARS PA NOT AVBL
STEAMBOAT SPGS CLOUDY    23  11  60 CALM      30.16S
WALDEN         FAIR      19   9  63 SW20G26   30.06S WCI   4
$$

COZ006>008-011-171500-
...WEST CENTRAL VALLEYS...

CITY           SKY/WX    TMP DP  RH WIND       PRES   REMARKS
GRAND JUNCTION CLEAR     22  19  89 CALM      30.23R
MONTROSE       CLEAR     17  14  88 SE6       30.25R WCI   9
EAGLE          PTCLDY    20  13  74 E7        30.21R WCI  11
RIFLE          CLEAR     19  13  77 S3        30.24R
DELTA          NOT AVBL
NUCLA          FAIR      23  14  68 CALM      30.27R
$$

COZ017>023-064>068-171500-
...SOUTHWEST COLORADO...

CITY           SKY/WX    TMP DP  RH WIND       PRES   REMARKS
DURANGO        CLEAR     18  14  84 NE3       30.22R
CORTEZ         PTCLDY    13  11  92 CALM      30.23R
PAGOSA SPRINGS FAIR      11  10  93 CALM      30.21R
TELLURIDE      PTCLDY    17   6  62 SE8       30.23R WCI   6
WOLF CREEK PAS   N/A      9   9 100 S12       30.20S WCI  -6
$$

COZ009-010-012-014-032>034-037-058>063-171500-
...CENTRAL COLORADO...

CITY           SKY/WX    TMP DP  RH WIND       PRES   REMARKS
ASPEN          CLEAR      7   2  80 S8        30.18R WCI  -6
BUENA VISTA    FAIR      29   5  36 W9G25     30.09R WCI  20
COPPER MTN     CLEAR     12   3  67 W21G29    30.04R WCI  -6
BERTHOUD PASS  CLOUDY     3  -8  60 NW31G44   29.97R WCI -22
COTTONWOOD PAS CLEAR     28  10  47 W35G60    30.01R WCI  12
GUNNISON       CLEAR     14  10  84 NE3       30.20R
KREMMLING      PTCLDY    27  12  54 SW7       30.14R WCI  19
LEADVILLE      CLEAR     14   6  70 N13G23    30.07R WCI   0
MONARCH PASS     N/A     10   5  79 W43       30.17S WCI -15
SALIDA         FAIR      33   7  33 W28G36    30.14S WCI  20
SUNLIGHT       CLEAR     10   5  79 SW14G22     N/A  WCI  -5
WILKERSON PASS CLEAR     14   0  52 W17G30    29.98R WCI  -3
$$

COZ069>075-171500-
...SAN LUIS VALLEY/SANGRE DE CRISTO MOUNTAINS...

CITY           SKY/WX    TMP DP  RH WIND       PRES   REMARKS
ALAMOSA        PTCLDY     8   4  83 SW6       30.15R WCI  -2
DEL NORTE      FAIR      19   9  64 W10       30.15R WCI   7
LA VETA PASS   CLEAR     21  10  63 S30G46    30.13R WCI   3
SAGUACHE       CLEAR     16   7  67 N7        30.16R WCI   6
$$

COZ035-036-038>040-171500-
...NORTHERN COLORADO FRONT RANGE...

CITY           SKY/WX    TMP DP  RH WIND       PRES   REMARKS
DENVER INTL AP PTCLDY    30  11  45 VRB6      30.00R WCI  24
DMNS CITY PARK NOT AVBL
AURORA         CLEAR     29  11  46 N10       30.01R WCI  19
FRONT RANGE AP PTCLDY    32  12  43 CALM      30.02R
ERIE MUNI ARPT FAIR      31  10  41 SE7       30.05R WCI  25
BOULDER MUN AP FAIR      34   9  35 NW3       29.98R
CENTENNIAL     PTCLDY    28  12  51 S9        30.00R WCI  19
BROOMFIELD     PTCLDY    37   7  28 W23G35    29.99R
LOVELAND       CLEAR     34   9  35 NW9       30.00R WCI  27
LONGMONT       FAIR      39   7  26 NW10G17   30.00R
$$

COZ041-046-047-076>085-087-088-171500-
...PIKES PEAK/PALMER DIVIDE AND SOUTHERN FOOTHILLS...

CITY           SKY/WX    TMP DP  RH WIND       PRES   REMARKS
COLO. SPRINGS  CLEAR     40   2  20 NW24G32   30.00R
A. F. ACADEMY  CLEAR     29   5  35 NE10      30.00R WCI  20
SCHRIEVER AFB  NOT AVBL
CHEYENNE MTN   NOT AVBL
ELLICOTT         N/A    N/A N/A N/A CALM      30.02R
FALCON         FAIR      27   7  44 MISG      30.02R
FORT CARSON    CLEAR     29  12  49 SW7       30.01R WCI  22
LIMON          CLEAR     21  13  71 W8        30.02R WCI  11
MONUMENT HILL  CLEAR     16   7  67 MISG      30.02R
CANON CITY     CLEAR     37  10  32 W5        30.02R
WALSENBURG     FAIR      39  12  33 W23G29    30.01R
TRINIDAD       CLEAR     26  14  60 S9        30.03R WCI  17
$$

COZ042>045-048>051-090-091-171500-
...NORTHEAST COLORADO...

CITY           SKY/WX    TMP DP  RH WIND       PRES   REMARKS
GREELEY ARPT   CLEAR     33  11  39 N15G24    30.01R WCI  23
AKRON          CLEAR     33  13  43 NW23G32   30.01R WCI  21
BURLINGTON     CLEAR     31  16  54 N10       30.02R WCI  22
WRAY           FAIR      27  19  74 NW12      30.01S WCI  16
YUMA           NOT AVBL
STERLING       FAIR      32  16  51 NW12      30.00R WCI  23
HOLYOKE        FAIR      34  19  55 NW15      29.98F WCI  24
FORT MORGAN    FAIR      35   8  32 NW24G35   30.01R WCI  23
$$

COZ086-089-092>099-171500-
...SOUTHEAST COLORADO...

CITY           SKY/WX    TMP DP  RH WIND       PRES   REMARKS
PUEBLO         CLEAR     35  16  45 N13       30.03R WCI  26
LA JUNTA       CLEAR     28  14  55 CALM      30.04R
LAMAR          CLEAR     29  14  53 MISG      30.03R
SPRINGFIELD      N/A     25  14  63 N8        30.05R WCI  16
$$





USA.gov is the U.S. government's official web portal to all federal, state and local government web resources and services.